Regional Weather Roundup
Issued by NWS

Home | Current Version | Previous Version | Graphics & Text | Print | Product List | Glossary On
Versions: 1 2 3 4 5 6 7 8 9 10 11 12 13 14 15 16 17 18 19 20 21 22 23 24 25 26 27 28 29 30 31 32 33 34 35 36 37 38 39 40 41 42 43 44 45 46 47 48 49 50
000
ASUS43 KTOP 220559
RWRKS

WEATHER ROUNDUP FOR KANSAS
NATIONAL WEATHER SERVICE GOODLAND KS
100 AM CDT TUE JUL 22 2014

NOTE:  "FAIR" INDICATES FEW OR NO CLOUDS BELOW 12,000 FEET WITH NO
SIGNIFICANT WEATHER AND/OR OBSTRUCTIONS TO VISIBILITY.

KSZ001>006-013>018-027>032-041>047-220700-
NORTHWEST KANSAS

CITY           SKY/WX    TMP DP  RH WIND       PRES   REMARKS
GOODLAND       PTCLDY    72  64  76 SW17G24   30.10S
6HR MIN TEMP:  71; 6HR MAX TEMP:  94;

HAYS           CLOUDY    79  63  57 SW8       29.99R
HILL CITY      MOCLDY    79  60  52 W8        30.00R
6HR MIN TEMP:  77; 6HR MAX TEMP:  93;

RUSSELL        CLOUDY    80  70  71 SW8       29.98R
6HR MIN TEMP:  80; 6HR MAX TEMP:  93;

$$

KSZ061>065-074>080-084>089-220700-
SOUTHWEST KANSAS

CITY           SKY/WX    TMP DP  RH WIND       PRES   REMARKS
DODGE CITY     CLOUDY    74  61  63 SW13      30.03F
6HR MIN TEMP:  73; 6HR MAX TEMP:  91; 6HR PCP:  0.02;

ELKHART          N/A     70  60  70 E16         N/A
GARDEN CITY    CLOUDY    78  58  49 W13G24    30.04S
6HR MIN TEMP:  68; 6HR MAX TEMP:  91; 6HR PCP:  0.89;

GREAT BEND     CLOUDY    81  68  65 S10       29.97R
LIBERAL        CLOUDY    72  63  73 S5        30.18F
$$

KSZ066>073-081>083-090>101-220700-
SOUTHEAST KANSAS

CITY           SKY/WX    TMP DP  RH WIND       PRES   REMARKS
CHANUTE        PTCLDY    75  72  90 S7        30.03F
6HR MIN TEMP:  74; 6HR MAX TEMP:  89;

COFFEYVILLE    PTCLDY    76  73  91 S7        30.03S FOG
6HR MIN TEMP:  76; 6HR MAX TEMP:  87;

HUTCHINSON     CLOUDY    82  73  74 S10       30.00S
6HR MIN TEMP:  82; 6HR MAX TEMP:  96;

MEDICINE LODGE   N/A     79  72  79 S7        30.01S
NEWTON         CLOUDY    81  70  69 S15       30.04S
PARSONS        PTCLDY    77  72  84 S6        30.05R
6HR MIN TEMP:  77; 6HR MAX TEMP:  89;

WICHITA INTL   CLOUDY    81  75  82 S14       30.01S
6HR MIN TEMP:  81; 6HR MAX TEMP:  92;

WICHITA JABRA  CLOUDY    82  75  79 S15       30.01S
6HR MIN TEMP:  80; 6HR MAX TEMP:  91;

WINFIELD       CLOUDY    80  76  87 S10       30.03F
6HR MIN TEMP:  78; 6HR MAX TEMP:  89;

$$

KSZ007>012-019>026-033>040-048>060-102>105-220700-
NORTHEAST KANSAS

CITY           SKY/WX    TMP DP  RH WIND       PRES   REMARKS
CONCORDIA      MOCLDY    83  69  62 S17       29.96R
6HR MIN TEMP:  83; 6HR MAX TEMP:  98;

EMPORIA        MOCLDY    77  74  90 S10       30.01S
6HR MIN TEMP:  76; 6HR MAX TEMP:  90;

LAWRENCE       PTCLDY    82  74  76 S6        29.98F
6HR MIN TEMP:  81; 6HR MAX TEMP:  92;

MANHATTAN      CLOUDY    82  73  74 S9        29.96S
6HR MIN TEMP:  82; 6HR MAX TEMP:  98;

OLATHE IND     PTCLDY    79  73  82 S13       30.01S
6HR MIN TEMP:  79; 6HR MAX TEMP:  91;

OLATHE EXE     PTCLDY    78  73  84 S8        30.00F
6HR MIN TEMP:  78; 6HR MAX TEMP:  89;

SALINA         CLOUDY    86  73  65 S17G23    29.97R
6HR MIN TEMP:  86; 6HR MAX TEMP: 100;

TOPEKA BILLARD PTCLDY    83  75  77 S8        29.97F
6HR MIN TEMP:  83; 6HR MAX TEMP:  94;

TOPEKA FORBES  MOCLDY    80  74  81 S8        29.98F
6HR MIN TEMP:  80; 6HR MAX TEMP:  92;

$$


USA.gov is the U.S. government's official web portal to all federal, state and local government web resources and services.